TimeMST,TemperatureF,Dew PointF,Humidity,Sea Level PressureIn,VisibilityMPH,Wind Direction,Wind SpeedMPH,Gust SpeedMPH,PrecipitationIn,Events,Conditions,WindDirDegrees,DateUTC
12:15 AM,41.0,32.0,70,29.89,10.0,NNW,5.8,-,N/A,,Clear,330,2012-11-08 07:15:00
12:35 AM,41.0,32.0,70,29.88,10.0,NW,6.9,-,N/A,,Clear,320,2012-11-08 07:35:00
12:55 AM,41.0,32.0,70,29.87,10.0,NW,6.9,-,N/A,,Clear,310,2012-11-08 07:55:00
1:15 AM,41.0,32.0,70,29.86,10.0,NW,6.9,-,N/A,,Clear,320,2012-11-08 08:15:00
1:35 AM,41.0,32.0,70,29.85,10.0,NW,6.9,-,N/A,,Scattered Clouds,310,2012-11-08 08:35:00
1:55 AM,41.0,32.0,70,29.85,10.0,NW,6.9,-,N/A,,Mostly Cloudy,320,2012-11-08 08:55:00
2:15 AM,41.0,32.0,70,29.84,10.0,NW,8.1,-,N/A,,Overcast,320,2012-11-08 09:15:00
2:35 AM,41.0,32.0,70,29.84,10.0,NW,8.1,-,N/A,,Overcast,310,2012-11-08 09:35:00
2:55 AM,41.0,32.0,70,29.83,10.0,NW,6.9,-,N/A,,Overcast,310,2012-11-08 09:55:00
3:15 AM,42.8,32.0,66,29.82,10.0,NNW,9.2,-,N/A,,Overcast,330,2012-11-08 10:15:00
3:35 AM,41.0,32.0,70,29.81,10.0,NW,6.9,-,N/A,,Overcast,320,2012-11-08 10:35:00
3:55 AM,42.8,32.0,66,29.80,10.0,NW,10.4,-,N/A,,Overcast,310,2012-11-08 10:55:00
4:15 AM,42.8,33.8,70,29.79,10.0,NNW,6.9,-,N/A,,Overcast,340,2012-11-08 11:15:00
4:35 AM,42.8,33.8,70,29.79,10.0,NW,6.9,-,N/A,,Overcast,320,2012-11-08 11:35:00
4:55 AM,42.8,33.8,70,29.78,10.0,NW,8.1,-,N/A,,Overcast,310,2012-11-08 11:55:00
5:15 AM,42.8,33.8,70,29.78,10.0,NW,4.6,-,N/A,,Overcast,320,2012-11-08 12:15:00
5:35 AM,42.8,33.8,70,29.76,10.0,North,16.1,-,N/A,Rain,Rain,350,2012-11-08 12:35:00
5:55 AM,42.8,33.8,70,29.76,10.0,NW,10.4,-,N/A,Rain,Light Rain,320,2012-11-08 12:55:00
6:47 AM,44.6,39.2,81,29.74,10.0,WNW,9.2,-,N/A,,Overcast,300,2012-11-08 13:47:00
7:47 AM,44.6,39.2,81,29.73,10.0,NW,6.9,-,N/A,,Overcast,310,2012-11-08 14:47:00
8:50 AM,46.4,37.4,71,29.73,10.0,NW,8.1,-,N/A,,Overcast,320,2012-11-08 15:50:00
9:47 AM,46.4,37.4,71,29.72,10.0,NW,5.8,-,N/A,,Overcast,310,2012-11-08 16:47:00
10:52 AM,46.4,37.4,71,29.72,10.0,Calm,Calm,-,N/A,Rain,Light Rain,0,2012-11-08 17:52:00
11:47 AM,46.4,37.4,71,29.69,10.0,SE,8.1,-,N/A,Rain,Light Rain,140,2012-11-08 18:47:00
12:51 PM,46.4,39.2,76,29.68,5.0,South,3.5,-,N/A,Rain,Rain,190,2012-11-08 19:51:00
1:47 PM,46.4,37.4,71,29.65,10.0,ESE,8.1,-,N/A,,Light Drizzle,110,2012-11-08 20:47:00
2:55 PM,46.4,37.4,71,29.62,5.0,ESE,10.4,17.3,N/A,Rain,Rain,120,2012-11-08 21:55:00
3:55 PM,48.2,35.6,62,29.60,10.0,South,5.8,-,N/A,,Mostly Cloudy,170,2012-11-08 22:55:00
4:47 PM,46.4,37.4,71,29.60,10.0,South,4.6,-,N/A,,Overcast,180,2012-11-08 23:47:00
5:50 PM,46.4,35.6,66,29.60,10.0,WNW,5.8,-,N/A,,Overcast,300,2012-11-09 00:50:00
6:47 PM,42.8,33.8,70,29.62,7.0,South,10.4,21.9,N/A,Rain,Light Rain,170,2012-11-09 01:47:00
7:47 PM,39.2,35.6,87,29.64,5.0,Calm,Calm,-,N/A,Rain,Light Rain,0,2012-11-09 02:47:00
8:47 PM,37.4,35.6,93,29.63,3.0,Calm,Calm,-,N/A,Rain,Rain,0,2012-11-09 03:47:00
10:15 PM,33.8,32.0,93,29.66,1.5,NNE,4.6,-,N/A,Snow,Light Snow,20,2012-11-09 05:15:00
10:35 PM,33.8,32.0,93,29.64,0.8,Calm,Calm,-,N/A,Snow,Light Snow,0,2012-11-09 05:35:00
10:47 PM,33.8,33.8,100,29.63,1.0,Calm,Calm,-,N/A,Snow,Light Snow,0,2012-11-09 05:47:00
10:55 PM,32.0,32.0,100,29.64,1.2,Calm,Calm,-,N/A,Snow,Light Snow,0,2012-11-09 05:55:00
11:15 PM,32.0,32.0,100,29.64,7.0,Calm,Calm,-,N/A,,Overcast,0,2012-11-09 06:15:00
11:35 PM,33.8,33.8,100,29.62,10.0,ENE,4.6,-,N/A,,Overcast,70,2012-11-09 06:35:00
11:55 PM,33.8,33.8,100,29.60,10.0,Calm,Calm,-,N/A,,Overcast,0,2012-11-09 06:55:00